Vineland Cherry Ave.

*Note: All times are displayed in the local standard time of the station location.
**Rain - Equipment is designed to accurately record liquid precipitation; under conditions when precipitation is not in liquid form, the data displayed may not properly reflect rainfall values.

Date Max Temp
(°C)
Min Temp
(°C)
Avg Temp
(°C)
Rain (mm) Avg RH (%) Solar Rad (kJ/m2)
Fri, Feb 15, 2019 4.5 -4.1 0.9 2.4 76.3 2347.0
Thu, Feb 14, 2019 2.2 -4.2 -1.3 0.2 77.3 4452.4
Wed, Feb 13, 2019 1.6 -4.2 -2.3 0.4 79.2 3361.9
Tue, Feb 12, 2019 2.2 -4.9 -2.2 21.6 88.5 1200.7
Mon, Feb 11, 2019 -1.8 -4.3 -3.1 0.0 73.7 1661.8
Sun, Feb 10, 2019 -3.0 -10.2 -5.7 0.0 72.0 3801.5
Sat, Feb 09, 2019 -4.0 -9.7 -6.8 0.0 65.7 3943.7
DateTime Avg Temp (°C) Rain (mm) RH (%) Solar Rad (kJ/m2)
Sat, Feb 16, 2019 16:00 -1.8 0.0 60.3 706.9
Sat, Feb 16, 2019 15:00 -2.2 0.0 61.9 989.8
Sat, Feb 16, 2019 14:00 -2.4 0.0 62.9 1166.5
Sat, Feb 16, 2019 13:00 -2.8 0.0 64.1 1141.8
Sat, Feb 16, 2019 12:00 -3.3 0.0 64.2 1022.2
Sat, Feb 16, 2019 11:00 -3.5 0.0 65.3 759.4
Sat, Feb 16, 2019 10:00 -3.4 0.0 65.6 696.7
Sat, Feb 16, 2019 09:00 -3.7 0.0 64.0 354.8
Sat, Feb 16, 2019 08:00 -4.2 0.0 64.5 54.2
Sat, Feb 16, 2019 07:00 -3.8 0.0 71.3 0.0
Sat, Feb 16, 2019 06:00 -3.1 0.0 67.9 0.0
Sat, Feb 16, 2019 05:00 -3.2 0.0 80.3 0.0
Sat, Feb 16, 2019 04:00 -3.5 0.0 79.6 0.0
Sat, Feb 16, 2019 03:00 -3.6 0.0 79.0 0.0
Sat, Feb 16, 2019 02:00 -3.5 0.0 75.8 0.0
Sat, Feb 16, 2019 01:00 -3.7 0.0 74.1 0.0
Sat, Feb 16, 2019 00:00 -3.7 0.0 72.4 0.0
Fri, Feb 15, 2019 23:00 -4.0 0.0 71.9 0.0
Fri, Feb 15, 2019 22:00 -3.7 0.0 70.1 0.0
Fri, Feb 15, 2019 21:00 -3.3 0.0 67.8 0.0
Fri, Feb 15, 2019 20:00 -2.3 0.0 68.9 0.0
Fri, Feb 15, 2019 19:00 -1.9 0.0 67.2 0.0
Fri, Feb 15, 2019 18:00 -1.3 0.0 66.5 38.6
Fri, Feb 15, 2019 17:00 -0.5 0.0 67.7 94.6
Fri, Feb 15, 2019 16:00 -0.1 0.0 69.1 293.9
Fri, Feb 15, 2019 15:00 0.1 0.0 74.0 489.3
Fri, Feb 15, 2019 14:00 1.0 0.0 72.3 288.9
Fri, Feb 15, 2019 13:00 2.1 0.0 65.0 428.3
Fri, Feb 15, 2019 12:00 2.4 0.0 68.5 344.3
Fri, Feb 15, 2019 11:00 3.0 0.0 74.3 200.0
Fri, Feb 15, 2019 10:00 3.9 0.0 81.8 125.8
Fri, Feb 15, 2019 09:00 4.1 0.0 87.9 40.3
Fri, Feb 15, 2019 08:00 4.3 0.0 88.3 3.0
Fri, Feb 15, 2019 07:00 4.3 0.2 89.3 0.0
Fri, Feb 15, 2019 06:00 4.2 1.0 90.6 0.0
Fri, Feb 15, 2019 05:00 4.2 0.6 88.0 0.0
Fri, Feb 15, 2019 04:00 4.4 0.4 79.8 0.0
Fri, Feb 15, 2019 03:00 3.1 0.2 76.6 0.0
Fri, Feb 15, 2019 02:00 0.5 0.0 84.5 0.0
Fri, Feb 15, 2019 01:00 -0.1 0.0 88.2 0.0
Fri, Feb 15, 2019 00:00 -0.1 0.0 85.8 0.0
Thu, Feb 14, 2019 23:00 -0.3 0.0 86.1 0.0
Thu, Feb 14, 2019 22:00 -0.9 0.0 91.2 0.0
Thu, Feb 14, 2019 21:00 -1.5 0.0 92.6 0.0
Thu, Feb 14, 2019 20:00 -1.6 0.0 90.4 0.0
Thu, Feb 14, 2019 19:00 -1.3 0.0 90.5 0.0
Thu, Feb 14, 2019 18:00 0.2 0.0 79.7 39.3
Thu, Feb 14, 2019 17:00 1.0 0.0 71.4 193.5


asterix Register now to access more data! asterix